Orange, VA

10:26 AM EDT on June 26, 2017 (GMT -0400)
Orange County

Weather History for KOMH - October, 2014

Change the Weather History Date:

Friday, October 10, 2014

  Actual Average Record
Temperature  
Mean Temperature 58 °F -  
Max Temperature 62 °F 70 °F 87 °F (1958)
Min Temperature 55 °F 46 °F 32 °F (1979)
Degree Days  
Heating Degree Days 6    
Growing Degree Days 8 (Base 50)    
Moisture  
Dew Point 54 °F    
Average Humidity 84    
Maximum Humidity 94    
Minimum Humidity 63    
Precipitation  
Precipitation 0.05 in - - ()
Sea Level Pressure  
Sea Level Pressure 30.10 in    
Wind  
Wind Speed 1 mph (NNW)    
Max Wind Speed 6 mph    
Max Gust Speed -    
Visibility 10 miles    
Events Rain    
Averages and records for this station are not official NWS values.
T = Trace of Precipitation, MM = Missing Value Source: NWS Daily Summary

Daily Weather History Graph

Daily Weather History Graph

Search for Another Location

Airport or City:

Trip Planner

Search our weather history database for the weather conditions in past years. The results will help you decide how hot, cold, wet, or windy it might be!

Date:

Astronomy

Oct. 10, 2014 Rise Set
Actual Time 7:16 AM EDT 6:41 PM EDT
Civil Twilight 6:49 AM EDT 7:07 PM EDT
Nautical Twilight 6:19 AM EDT 7:38 PM EDT
Astronomical Twilight 5:48 AM EDT 8:09 PM EDT
Moon 8:22 PM EDT (10/10) 9:33 AM EDT (10/10)
Length of Visible Light 12h 18m
Length of Day
11h 25m
Waning Gibbous, 94% of the Moon is Illuminated
Oct 10
Waning Gibbous
Oct 15
Last Quarter
Oct 23
New
Oct 30
First Quarter
Nov 6
Full

Hourly Weather History & Observations

Time (EDT) Temp. Dew Point Humidity Pressure Visibility Wind Dir Wind Speed Gust Speed Precip Events Conditions
12:15 AM 62.6 °F 53.6 °F 72% 30.10 in 10.0 mi Calm Calm - N/A   Overcast
12:35 AM 62.6 °F 53.6 °F 72% 30.10 in 10.0 mi Calm Calm - N/A   Overcast
12:55 AM 60.8 °F 55.4 °F 82% 30.10 in 10.0 mi Calm Calm - N/A   Overcast
1:15 AM 60.8 °F 55.4 °F 82% 30.10 in 10.0 mi Calm Calm - N/A   Overcast
1:35 AM 60.8 °F 55.4 °F 82% 30.10 in 10.0 mi Calm Calm - N/A   Overcast
1:55 AM 60.8 °F 55.4 °F 82% 30.10 in 10.0 mi Calm Calm - N/A   Overcast
2:15 AM 60.8 °F 55.4 °F 82% 30.10 in 10.0 mi Calm Calm - N/A   Overcast
2:35 AM 59.0 °F 55.4 °F 88% 30.09 in 10.0 mi Calm Calm - N/A   Mostly Cloudy
2:55 AM 59.0 °F 55.4 °F 88% 30.09 in 10.0 mi Calm Calm - N/A   Mostly Cloudy
3:15 AM 60.8 °F 53.6 °F 77% 30.09 in 10.0 mi North 3.5 mph - N/A   Mostly Cloudy
3:35 AM 59.0 °F 53.6 °F 82% 30.08 in 10.0 mi Calm Calm - N/A   Mostly Cloudy
3:55 AM 60.8 °F 53.6 °F 77% 30.09 in 10.0 mi Calm Calm - N/A   Mostly Cloudy
4:15 AM 59.0 °F 53.6 °F 82% 30.09 in 10.0 mi Calm Calm - N/A   Mostly Cloudy
4:35 AM 59.0 °F 53.6 °F 82% 30.09 in 10.0 mi Calm Calm - N/A   Overcast
4:55 AM 59.0 °F 51.8 °F 77% 30.09 in 10.0 mi Calm Calm - N/A   Light Drizzle
5:15 AM 59.0 °F 53.6 °F 82% 30.11 in 10.0 mi Calm Calm - N/A   Overcast
5:35 AM 59.0 °F 51.8 °F 77% 30.12 in 10.0 mi Calm Calm - N/A   Overcast
5:55 AM 59.0 °F 53.6 °F 82% 30.12 in 10.0 mi North 3.5 mph - N/A   Scattered Clouds
6:15 AM 59.0 °F 51.8 °F 77% 30.12 in 10.0 mi Calm Calm - N/A   Scattered Clouds
6:35 AM 57.2 °F 51.8 °F 82% 30.12 in 10.0 mi Calm Calm - N/A   Scattered Clouds
6:55 AM 55.4 °F 51.8 °F 88% 30.12 in 10.0 mi Calm Calm - N/A   Clear
7:15 AM 55.4 °F 51.8 °F 88% 30.12 in 10.0 mi Calm Calm - N/A   Scattered Clouds
7:35 AM 55.4 °F 51.8 °F 88% 30.12 in 10.0 mi Calm Calm - N/A   Scattered Clouds
7:55 AM 57.2 °F 53.6 °F 88% 30.12 in 10.0 mi Calm Calm - N/A   Clear
8:15 AM 57.2 °F 53.6 °F 88% 30.13 in 10.0 mi Calm Calm - N/A   Clear
8:35 AM 59.0 °F 53.6 °F 82% 30.13 in 10.0 mi Calm Calm - N/A   Clear
8:55 AM 59.0 °F 51.8 °F 77% 30.14 in 10.0 mi NW 3.5 mph - N/A   Scattered Clouds
9:15 AM 60.8 °F 51.8 °F 72% 30.14 in 10.0 mi North 4.6 mph - N/A   Scattered Clouds
9:35 AM 60.8 °F 53.6 °F 77% 30.14 in 10.0 mi NW 4.6 mph - N/A   Clear
9:55 AM 62.6 °F 50.0 °F 63% 30.14 in 10.0 mi NNE 4.6 mph - N/A   Clear
10:15 AM 62.6 °F 50.0 °F 63% 30.13 in 10.0 mi NNE 5.8 mph - N/A   Scattered Clouds
10:35 AM 62.6 °F 50.0 °F 63% 30.13 in 10.0 mi North 5.8 mph - N/A   Scattered Clouds
10:55 AM 62.6 °F 51.8 °F 68% 30.14 in 10.0 mi WNW 5.8 mph - N/A Rain Light Rain
11:15 AM 60.8 °F 53.6 °F 77% 30.12 in 10.0 mi NNW 4.6 mph - N/A Rain Light Rain
11:35 AM 60.8 °F 53.6 °F 77% 30.13 in 10.0 mi NW 5.8 mph - N/A   Overcast
11:55 AM 60.8 °F 53.6 °F 77% 30.13 in 10.0 mi WNW 4.6 mph - N/A   Light Drizzle
12:15 PM 60.8 °F 51.8 °F 72% 30.12 in 10.0 mi NW 5.8 mph - N/A   Drizzle
12:35 PM 60.8 °F 53.6 °F 77% 30.12 in 10.0 mi NW 3.5 mph - N/A   Drizzle
12:55 PM 60.8 °F 55.4 °F 82% 30.11 in 10.0 mi NNW 3.5 mph - N/A   Light Drizzle
1:15 PM 60.8 °F 53.6 °F 77% 30.10 in 10.0 mi NNW 4.6 mph - N/A   Overcast
1:35 PM 60.8 °F 55.4 °F 82% 30.09 in 10.0 mi NNW 4.6 mph - N/A   Overcast
1:55 PM 60.8 °F 55.4 °F 82% 30.09 in 10.0 mi NNW 3.5 mph - N/A   Overcast
2:15 PM 59.0 °F 55.4 °F 88% 30.09 in 10.0 mi NNW 3.5 mph - N/A Rain Light Rain
2:35 PM 59.0 °F 55.4 °F 88% 30.08 in 10.0 mi NNW 4.6 mph - 0.01 in Rain Rain
2:55 PM 60.8 °F 55.4 °F 82% 30.08 in 10.0 mi Calm Calm - 0.01 in Rain Light Rain
3:15 PM 60.8 °F 57.2 °F 88% 30.09 in 10.0 mi Calm Calm - N/A   Light Drizzle
3:35 PM 60.8 °F 55.4 °F 82% 30.08 in 10.0 mi NNE 3.5 mph - N/A   Light Drizzle
3:55 PM 60.8 °F 55.4 °F 82% 30.08 in 10.0 mi NNE 3.5 mph - N/A   Overcast
4:15 PM 59.0 °F 55.4 °F 88% 30.07 in 10.0 mi Calm Calm - N/A Rain Light Rain
4:35 PM 59.0 °F 55.4 °F 88% 30.06 in 10.0 mi NNW 3.5 mph - N/A Rain Light Rain
4:55 PM 59.0 °F 55.4 °F 88% 30.06 in 10.0 mi Calm Calm - N/A Rain Light Rain
5:15 PM 59.0 °F 55.4 °F 88% 30.06 in 10.0 mi Calm Calm - 0.01 in Rain Light Rain
5:35 PM 59.0 °F 55.4 °F 88% 30.07 in 7.0 mi Calm Calm - 0.01 in Rain Rain
5:55 PM 59.0 °F 57.2 °F 94% 30.06 in 7.0 mi NNW 3.5 mph - 0.02 in   Drizzle
6:15 PM 59.0 °F 55.4 °F 88% 30.06 in 10.0 mi NNW 3.5 mph - N/A   Drizzle
6:35 PM 59.0 °F 55.4 °F 88% 30.07 in 10.0 mi North 3.5 mph - N/A   Overcast
6:55 PM 59.0 °F 55.4 °F 88% 30.08 in 10.0 mi North 4.6 mph - N/A   Light Drizzle
7:15 PM 59.0 °F 55.4 °F 88% 30.09 in 10.0 mi North 4.6 mph - N/A   Light Drizzle
7:35 PM 57.2 °F 55.4 °F 94% 30.09 in 10.0 mi North 5.8 mph - N/A Rain Rain
7:55 PM 57.2 °F 55.4 °F 94% 30.09 in 10.0 mi North 4.6 mph - N/A Rain Rain
8:15 PM 55.4 °F 53.6 °F 94% 30.09 in 10.0 mi North 3.5 mph - N/A Rain Rain
8:35 PM 55.4 °F 53.6 °F 94% 30.09 in 10.0 mi North 3.5 mph - 0.01 in Rain Rain
8:55 PM 55.4 °F 53.6 °F 94% 30.09 in 7.0 mi North 3.5 mph - 0.02 in Rain Light Rain
9:15 PM 55.4 °F 53.6 °F 94% 30.09 in 7.0 mi North 3.5 mph - N/A   Light Drizzle
9:35 PM 55.4 °F 53.6 °F 94% 30.08 in 10.0 mi Calm Calm - N/A   Overcast
9:55 PM 55.4 °F 53.6 °F 94% 30.08 in 7.0 mi Calm Calm - N/A   Overcast
10:15 PM 55.4 °F 53.6 °F 94% 30.08 in 7.0 mi Calm Calm - N/A   Overcast
10:35 PM 55.4 °F 53.6 °F 94% 30.08 in 7.0 mi Calm Calm - N/A   Overcast
10:55 PM 55.4 °F 53.6 °F 94% 30.09 in 7.0 mi Calm Calm - N/A   Overcast
11:15 PM 55.4 °F 53.6 °F 94% 30.08 in 5.0 mi Calm Calm - N/A   Overcast
11:35 PM 55.4 °F 53.6 °F 94% 30.07 in 7.0 mi Calm Calm - N/A   Overcast
11:55 PM 55.4 °F 53.6 °F 94% 30.06 in 7.0 mi Calm Calm - N/A   Overcast